星链-1807 (STARLINK-1807 )

导读 | 豆包AI

STARLINK-1807是美国太空探索技术公司Starlink星链卫星互联网项目的组网卫星,于2020年10月18日发射升空。作为星链低轨星座的组成部分,它承担着为全球提供高速互联网覆盖的任务,依托低轨部署降低通信延迟,推动全球无缝网络覆盖的建设,也引发了业内对天文观测与空间碎片的相关讨论。

Basic Information
目录编号:
46706
目录名称:
STARLINK-1807
国际标识:
2020-073AN
轨道中心:
EARTH
卫星名称:
星链-1807
卫星全名:
星链-1807 (STARLINK-1807 )
卫星状态:
在轨 (已飞行2021 天)
发射日期:
2020-10-18 UTC
国别 :
美国 (US)
星等 :
--
Orbit Information
数据来源 国际轨道数据 AOE轨道数据
星历时间 2026-04-30T23:38:46+0800
10小时前
查看轨道信息
2026-04-26T23:00:00+0800
4天前
查看轨道信息
半长轴 6859.821km 6860.961km
偏心率 0.0000508 0.0001445
轨道倾角 53.058° 53.058°
近地点辐角 76.232° 64.736°
升交点赤经 348.015° 6.698°
平近点角 283.873° 93.543°
近地点 481.335km 481.832km
远地点 482.033km 483.816km
周期 94.239分钟 94.262分钟
每日圈数 15.280363 15.276555
Detailed Information
固有亮度:
5
最大亮度:
2.5
卫星平台:
Starlink V1.0
覆盖范围:
全球
运营商:
太空探索技术公司
运营商所在国:
美国
制造商(研发单位):
太空探索技术公司
制造商所在国:
美国
使用方式:
暂无
Satellite Introduction
星链(Starlink)计划是由太空探索技术公司(SpaceX)提出的一个巨型低轨卫星互联网星座项目,计划在2019年至2024年间在太空搭建由约1.2万颗卫星组成的“星链”网络,其中1584颗将部署在地球上空550千米处的近地轨道,并从2020年开始工作。该卫星仍在工作。
2D Orbit Map
3D Orbit Map
Orbit Altitude Analysis Chart
Orbit Inclination Analysis Chart
Orbit Comprehensive Analysis Chart
View Comprehensive Chart